| time (UTC) | temp F | wind direction | speed MPH | gust MPH | rain 1hr in | rain 24hr in | rain mn in | humidity % | barometer mb |
| 20260506150350 | 76 | 192 | 7.0 | 14.0 | 0.00 | 0.00 | 0.00 | 46 | 1013.2 |
| 20260506145354 | 76 | 272 | 13.0 | 19.0 | 0.00 | 0.00 | 0.00 | 47 | 1013.2 |
| 20260506144349 | 77 | 261 | 10.0 | 22.0 | 0.00 | 0.00 | 0.00 | 45 | 1013.1 |
| 20260506143342 | 77 | 236 | 11.0 | 24.0 | 0.00 | 0.00 | 0.00 | 46 | 1013.2 |
| 20260506141342 | 78 | 236 | 7.0 | 13.0 | 0.00 | 0.00 | 0.00 | 44 | 1012.9 |
| 20260506140342 | 78 | 237 | 10.0 | 15.0 | 0.00 | 0.00 | 0.00 | 44 | 1012.7 |
| 20260506135341 | 79 | 217 | 10.0 | 17.0 | 0.00 | 0.00 | 0.00 | 42 | 1012.6 |
| 20260506134342 | 81 | 279 | 6.0 | 16.0 | 0.00 | 0.00 | 0.00 | 39 | 1012.8 |
| 20260506132340 | 81 | 24 | 3.0 | 8.0 | 0.00 | 0.00 | 0.00 | 38 | 1012.8 |
| 20260506131344 | 81 | 223 | 7.0 | 17.0 | 0.00 | 0.00 | 0.00 | 38 | 1012.9 |
| 20260506130339 | 81 | 202 | 9.0 | 17.0 | 0.00 | 0.00 | 0.00 | 39 | 1013.1 |
| 20260506125339 | 81 | 254 | 9.0 | 17.0 | 0.00 | 0.00 | 0.00 | 41 | 1013.2 |
| 20260506123340 | 79 | 282 | 4.0 | 11.0 | 0.00 | 0.00 | 0.00 | 48 | 1013.5 |
| 20260506122341 | 79 | 54 | 7.0 | 14.0 | 0.00 | 0.00 | 0.00 | 47 | 1013.4 |
| 20260506121341 | 78 | 60 | 6.0 | 13.0 | 0.00 | 0.00 | 0.00 | 49 | 1013.3 |
| 20260506115336 | 78 | 41 | 7.0 | 13.0 | 0.00 | 0.00 | 0.00 | 53 | 1013.5 |
| 20260506114340 | 77 | 56 | 8.0 | 15.0 | 0.00 | 0.00 | 0.00 | 54 | 1013.7 |
| 20260506113342 | 77 | 80 | 9.0 | 15.0 | 0.00 | 0.00 | 0.00 | 52 | 1013.9 |
| 20260506110336 | 77 | 39 | 7.0 | 13.0 | 0.00 | 0.00 | 0.00 | 53 | 1014.2 |
| 20260506105334 | 77 | 78 | 6.0 | 11.0 | 0.00 | 0.00 | 0.00 | 51 | 1014.2 |
| 20260506104333 | 77 | 19 | 6.0 | 12.0 | 0.00 | 0.00 | 0.00 | 50 | 1014.5 |
| 20260506103333 | 78 | 31 | 5.0 | 10.0 | 0.00 | 0.00 | 0.00 | 49 | 1014.4 |
| 20260506102334 | 78 | 59 | 4.0 | 10.0 | 0.00 | 0.00 | 0.00 | 48 | 1014.6 |
| 20260506101337 | 78 | 355 | 2.0 | 10.0 | 0.00 | 0.00 | 0.00 | 46 | 1014.7 |
| 20260506100333 | 78 | 115 | 1.0 | 6.0 | 0.00 | 0.00 | 0.00 | 48 | 1014.8 |
| 20260506095346 | 76 | 12 | 2.0 | 6.0 | 0.00 | 0.00 | 0.00 | 50 | 1014.8 |
| 20260506094341 | 75 | 42 | 3.0 | 6.0 | 0.00 | 0.00 | 0.00 | 51 | 1015.0 |
| 20260506093337 | 75 | 28 | 2.0 | 4.0 | 0.00 | 0.00 | 0.00 | 52 | 1015.1 |
| 20260506092337 | 74 | 103 | 2.0 | 5.0 | 0.00 | 0.00 | 0.00 | 52 | 1015.2 |
| 20260506091333 | 74 | 5 | 4.0 | 8.0 | 0.00 | 0.00 | 0.00 | 52 | 1015.2 |
| 20260506085335 | 74 | 33 | 1.0 | 2.0 | 0.00 | 0.00 | 0.00 | 55 | 1015.2 |
| 20260506084337 | 74 | 56 | 2.0 | 4.0 | 0.00 | 0.00 | 0.00 | 52 | 1015.2 |
| 20260506082333 | 75 | 115 | 2.0 | 4.0 | 0.00 | 0.00 | 0.00 | 48 | 1015.0 |
| 20260506081335 | 75 | 24 | 1.0 | 4.0 | 0.00 | 0.00 | 0.00 | 47 | 1015.2 |
| 20260506080333 | 74 | 19 | 1.0 | 3.0 | 0.00 | 0.00 | 0.00 | 50 | 1015.2 |
| 20260506073333 | 73 | 0 | 3.0 | 7.0 | 0.00 | 0.00 | 0.00 | 52 | 1015.3 |
| 20260506072331 | 73 | 328 | 1.0 | 8.0 | 0.00 | 0.00 | 0.00 | 52 | 1015.3 |
| 20260506071328 | 72 | 277 | 3.0 | 8.0 | 0.00 | 0.00 | 0.00 | 53 | 1015.4 |
| 20260506070328 | 72 | 246 | 2.0 | 5.0 | 0.00 | 0.00 | 0.00 | 55 | 1015.5 |
| 20260506062328 | 69 | 175 | 1.0 | 3.0 | 0.00 | 0.00 | 0.00 | 68 | 1015.5 |
| 20260506061329 | 67 | 201 | 1.0 | 4.0 | 0.00 | 0.00 | 0.00 | 73 | 1015.4 |
| 20260506060323 | 66 | 230 | 2.0 | 4.0 | 0.00 | 0.00 | 0.00 | 73 | 1015.4 |
| 20260506044325 | 63 | 164 | 0.0 | 2.0 | 0.00 | 0.00 | 0.00 | 72 | 1014.2 |
| 20260506042325 | 63 | 160 | 1.0 | 4.0 | 0.00 | 0.00 | 0.00 | 70 | 1014.1 |
| 20260506041323 | 63 | 160 | 0.0 | 2.0 | 0.00 | 0.00 | 0.00 | 69 | 1014.1 |
| 20260506040325 | 63 | 160 | 1.0 | 4.0 | 0.00 | 0.00 | 0.00 | 70 | 1013.8 |
| 20260506035323 | 64 | 160 | 1.0 | 4.0 | 0.00 | 0.00 | 0.00 | 73 | 1013.7 |
| 20260506034319 | 64 | 118 | 1.0 | 3.0 | 0.00 | 0.00 | 0.00 | 82 | 1013.7 |
| 20260506033314 | 64 | 118 | 1.0 | 3.0 | 0.00 | 0.00 | 0.00 | 80 | 1013.9 |
| 20260506031314 | 65 | 317 | 2.0 | 5.0 | 0.00 | 0.00 | 0.00 | 79 | 1013.9 |
| 20260506030313 | 64 | 284 | 1.0 | 6.0 | 0.00 | 0.00 | 0.00 | 75 | 1013.8 |
| 20260506024312 | 65 | 9 | 1.0 | 3.0 | 0.00 | 0.00 | 0.00 | 67 | 1013.6 |
| 20260506023312 | 66 | 78 | 2.0 | 6.0 | 0.00 | 0.00 | 0.00 | 57 | 1013.6 |
| 20260506022314 | 66 | 276 | 3.0 | 8.0 | 0.00 | 0.00 | 0.00 | 52 | 1013.5 |
| 20260506021312 | 66 | 184 | 2.0 | 4.0 | 0.00 | 0.00 | 0.00 | 54 | 1013.6 |
| 20260506020312 | 67 | 70 | 2.0 | 5.0 | 0.00 | 0.00 | 0.00 | 62 | 1013.6 |
| 20260506015312 | 68 | 153 | 3.0 | 7.0 | 0.00 | 0.00 | 0.00 | 59 | 1013.5 |
| 20260506014313 | 68 | 242 | 4.0 | 6.0 | 0.00 | 0.00 | 0.00 | 57 | 1013.7 |
| 20260506013310 | 68 | 322 | 6.0 | 11.0 | 0.00 | 0.00 | 0.00 | 49 | 1013.9 |
| 20260506010304 | 69 | 269 | 8.0 | 13.0 | 0.00 | 0.00 | 0.00 | 45 | 1014.2 |
| 20260506002300 | 67 | 197 | 6.0 | 13.0 | 0.00 | 0.00 | 0.00 | 50 | 1014.3 |
| 20260506000255 | 66 | 221 | 3.0 | 7.0 | 0.00 | 0.00 | 0.00 | 65 | 1014.4 |
| 20260505235256 | 65 | 175 | 3.0 | 4.0 | 0.00 | 0.00 | 0.00 | 70 | 1014.4 |
| 20260505234256 | 65 | 290 | 2.0 | 8.0 | 0.00 | 0.00 | 0.00 | 71 | 1014.4 |
| 20260505233254 | 65 | 123 | 2.0 | 4.0 | 0.00 | 0.00 | 0.00 | 70 | 1014.4 |
| 20260505232253 | 65 | 123 | 1.0 | 4.0 | 0.00 | 0.00 | 0.00 | 74 | 1014.5 |
| 20260505231256 | 65 | 113 | 1.0 | 4.0 | 0.00 | 0.00 | 0.00 | 73 | 1014.5 |
| 20260505230255 | 66 | 60 | 0.0 | 3.0 | 0.00 | 0.00 | 0.00 | 73 | 1014.6 |
| 20260505225257 | 66 | 167 | 3.0 | 6.0 | 0.00 | 0.00 | 0.00 | 72 | 1014.6 |
| 20260505224255 | 66 | 169 | 3.0 | 5.0 | 0.00 | 0.00 | 0.00 | 73 | 1014.7 |
| 20260505223253 | 65 | 188 | 1.0 | 3.0 | 0.00 | 0.00 | 0.00 | 74 | 1015.0 |
| 20260505222253 | 65 | 188 | 0.0 | 2.0 | 0.00 | 0.00 | 0.00 | 76 | 1015.2 |
| 20260505221254 | 65 | 188 | 0.0 | 3.0 | 0.00 | 0.00 | 0.00 | 76 | 1015.4 |
| 20260505220254 | 65 | 188 | 2.0 | 4.0 | 0.00 | 0.00 | 0.00 | 77 | 1015.5 |
| 20260505215255 | 65 | 188 | 1.0 | 2.0 | 0.00 | 0.00 | 0.00 | 78 | 1015.6 |
| 20260505214253 | 65 | 188 | 2.0 | 4.0 | 0.00 | 0.00 | 0.00 | 78 | 1015.8 |
| 20260505213254 | 65 | 154 | 1.0 | 3.0 | 0.00 | 0.00 | 0.00 | 80 | 1015.8 |
| 20260505212253 | 65 | 132 | 0.0 | 1.0 | 0.00 | 0.00 | 0.00 | 81 | 1015.8 |
| 20260505211255 | 65 | 132 | 0.0 | 1.0 | 0.00 | 0.00 | 0.00 | 80 | 1015.8 |
| 20260505210253 | 65 | 132 | 1.0 | 4.0 | 0.00 | 0.00 | 0.00 | 80 | 1015.8 |
| 20260505205256 | 65 | 148 | 0.0 | 0.0 | 0.00 | 0.00 | 0.00 | 79 | 1015.9 |
| 20260505204253 | 65 | 248 | 1.0 | 3.0 | 0.00 | 0.00 | 0.00 | 79 | 1016.0 |
| 20260505201251 | 65 | 181 | 0.0 | 2.0 | 0.00 | 0.00 | 0.00 | 81 | 1016.0 |
| 20260505195248 | 65 | 181 | 0.0 | 2.0 | 0.00 | 0.00 | 0.00 | 81 | 1016.4 |
| 20260505193249 | 65 | 148 | 1.0 | 3.0 | 0.00 | 0.00 | 0.00 | 82 | 1016.5 |
| 20260505192248 | 65 | 308 | 0.0 | 0.0 | 0.00 | 0.00 | 0.00 | 83 | 1016.6 |
| 20260505191242 | 65 | 308 | 0.0 | 1.0 | 0.00 | 0.00 | 0.00 | 83 | 1016.7 |
| 20260505190242 | 65 | 308 | 0.0 | 0.0 | 0.00 | 0.00 | 0.00 | 83 | 1016.7 |
| 20260505185242 | 65 | 308 | 0.0 | 0.0 | 0.00 | 0.00 | 0.00 | 83 | 1016.5 |
| 20260505184244 | 65 | 308 | 0.0 | 0.0 | 0.00 | 0.00 | 0.00 | 83 | 1016.4 |
| 20260505183244 | 65 | 308 | 1.0 | 2.0 | 0.00 | 0.00 | 0.00 | 82 | 1016.4 |
| 20260505182246 | 66 | 308 | 2.0 | 3.0 | 0.00 | 0.00 | 0.00 | 82 | 1016.6 |
| 20260505180244 | 66 | 307 | 3.0 | 4.0 | 0.00 | 0.00 | 0.00 | 81 | 1016.8 |
| 20260505175241 | 66 | 284 | 2.0 | 4.0 | 0.00 | 0.00 | 0.00 | 80 | 1016.8 |
| 20260505173240 | 67 | 323 | 1.0 | 5.0 | 0.00 | 0.00 | 0.00 | 78 | 1016.6 |
| 20260505172240 | 67 | 343 | 3.0 | 5.0 | 0.00 | 0.00 | 0.00 | 78 | 1016.7 |
| 20260505171244 | 68 | 331 | 3.0 | 5.0 | 0.00 | 0.00 | 0.00 | 77 | 1016.8 |
| 20260505170240 | 69 | 339 | 4.0 | 8.0 | 0.00 | 0.00 | 0.00 | 75 | 1016.7 |
| 20260505165242 | 69 | 340 | 3.0 | 6.0 | 0.00 | 0.00 | 0.00 | 72 | 1016.8 |
| 20260505164240 | 70 | 281 | 2.0 | 5.0 | 0.00 | 0.00 | 0.00 | 66 | 1016.8 |
| 20260505161239 | 70 | 340 | 1.0 | 3.0 | 0.00 | 0.00 | 0.00 | 68 | 1016.8 |
| 20260505160241 | 69 | 340 | 1.0 | 4.0 | 0.00 | 0.00 | 0.00 | 71 | 1016.7 |
| 20260505153238 | 69 | 355 | 5.0 | 10.0 | 0.00 | 0.00 | 0.00 | 70 | 1016.7 |
| 20260505152236 | 71 | 327 | 4.0 | 8.0 | 0.00 | 0.00 | 0.00 | 69 | 1016.7 |
| 20260505151235 | 71 | 15 | 4.0 | 6.0 | 0.00 | 0.00 | 0.00 | 69 | 1016.6 |